Simultaneous Nadir Overpasses (SNOs) Predictions

Prediction of SNOs between AQUA and METOP-B Satellite Orbit:

Table of predicted SNOs for the next 14.0 days since TLE Epoch: 2/13/2021
Index Date (AQUA) Time (AQUA) Lat,Lon (AQUA) SZA (AQUA ) Date (METOP-B) Time (METOP-B) Lat,Lon (METOP-B) SZA (METOP-B ) Distance(km) Time Diff (sec)
1 02/13/2021 13:51:55 73.75, -33.62 87.02 02/13/2021 13:50:42 73.77, -33.58 87.05 2.55 73
2 02/13/2021 14:41:22 -73.80, 133.90 92.94 02/13/2021 14:41:23 -73.83, 133.90 92.91 3.71 1
3 02/13/2021 15:30:51 73.90, -58.68 87.16 02/13/2021 15:32:01 73.90, -58.62 87.14 1.83 70
4 02/16/2021 09:26:11 73.77, 32.78 86.07 02/16/2021 09:25:04 73.74, 32.77 86.06 2.66 67
5 02/16/2021 10:15:38 -73.82,-159.69 93.89 02/16/2021 10:15:45 -73.81,-159.74 93.90 1.70 7
6 02/16/2021 11:05:07 73.97, 7.60 86.27 02/16/2021 11:06:19 74.02, 8.09 86.28 15.90 72
7 02/19/2021 05:00:25 73.74, 99.28 85.04 02/19/2021 04:59:24 73.77, 99.23 85.09 3.30 61
8 02/19/2021 05:49:53 -73.84, -93.30 94.86 02/19/2021 05:50:05 -73.84, -93.28 94.87 0.99 12
9 02/19/2021 06:39:27 74.20, 73.51 85.52 02/19/2021 06:40:36 74.24, 75.05 85.48 46.61 69
10 02/22/2021 00:34:41 73.77, 165.65 84.06 02/22/2021 00:33:45 73.79, 165.69 84.09 2.31 56
11 02/22/2021 01:24:08 -73.82, -26.81 95.91 02/22/2021 01:24:27 -73.81, -26.93 95.91 3.66 19
12 02/22/2021 02:13:47 74.44, 139.40 84.76 02/22/2021 02:14:53 74.45, 142.02 84.66 78.14 66
13 02/24/2021 20:08:56 73.75,-127.87 83.00 02/24/2021 20:08:07 73.76,-127.97 83.02 3.20 49
14 02/24/2021 20:58:24 -73.85, 39.55 96.91 02/24/2021 20:58:48 -73.83, 39.53 96.93 2.51 24



Historial Predications of SNOs between AQUA and METOP-B
